BREEZE-M R/B, 36793

Orbit data source: Space-Track

BREEZE-M R/B, 36793 is space debris in HEO originally from a launch on Sat, 10 Jul 2010 UTC launched from the Tyuratam Missile And Space Complex (TTMTR). Debris objects in space refer to the collection of defunct objects orbiting the Earth. Examples of debris include non-operational satellites, rocket bodies, and fragments generated from explosions, collisions, or faulty payload assembly.

Loading next visibility...
Identifier
36793, 2010-034B
Orbit
HEO
Last TLE update
15 hours ago
Origin
Manufacturer
Khrunichev
Mission
Spacecraft
Bus & Motor
BRIZ, Unknown motor
Mass
~1,600 kg wet, 1,600 kg dry
Launch date (UTC)
2010-07-10 (15 years ago)
Launch vehicle
Unknown
Launch site
Tyuratam Missile And Space Complex (TTMTR)
Object type
Payload
Rocket body
Debris
Shape & HBR
Cyl, 4 m
Radar Cross Section
14.451 m², Large (>1 m²)

Expand to show TLE details & history

TLE from 15 hours ago
0 BREEZE-M R/B
1 36793U 10034B   25188.73465975 -.00000130  00000-0  00000-0 0  9991
2 36793  18.2200 146.5125 5505207   3.8378 189.6012  2.04327582111902
Epoch: 2025-07-07T17:37Z
TLE epoch observation values (Epoch: 2025-07-07T17:37:54.602Z)
Latitude
-2.24106°
Longitude
142.8813°
Altitude
34,205.285 km
Speed
2.109 km/s
True Right ascension
22h 13m 11s
True Declination
-2° 14' 19"
Sunlit
Object was in daylight at epoch
Visualization orbit readout
Latitude
-14.61491°
Longitude
-171.66438°
Altitude
21,969.407 km
Speed
3.596 km/s
Apparent Right ascension
01h 54m 57s
Apparent Declination
-23° 27' 01"
Sunlit
Object is in daylight
Visualization observer readout
Local Sidereal Time
20:50:03
Azimuth
116.557° SE
Elevation
-5.04°
Doppler factor
1
Orbital elements
Apogee altitude
34,300.755 km
Perigee altitude
5,414.237 km
Semi-major axis
26,235.633 km
Eccentricity
0.55052
Inclination
18.22°
RAAN
146.5125°
Arg. of periapsis
3.8378°
True anomaly
Unknown
Mean anomaly
189.6012°
Eccentric anomaly
Unknown
Mean motion
0.51075 °/min
Orbital period
704.85 mins
BSTAR
0
Loading maneuver chart data...
Loading SW <> Apogee altitude chart data...
Loading historical data...
Loading historical data...
Loading historical data...
Loading historical data...
Loading historical data...
Loading historical data...
Loading historical data...
Other satellites on launch #34 in the year 2010 (2010-07-10 UTC)

BREEZE-M R/B Visibility forecast

Observer location: undefined°, undefined°

Span
Click to sort rows by Start time (UTC) header in descending order
Start Az.
Max El. time (UTC)
Max El. Az.
Max El.
End time (UTC)
End Az.
69 mins2025-07-08 22:34:16.956Z211.929° SW2025-07-08 22:57:16.956Z148.815° SSE28.098°2025-07-08 23:43:16.956Z90.783° ESE
|